Regional Weather Roundup
Issued by NWS

Home | Current Version | Previous Version | Graphics & Text | Print | Product List | Glossary On
Versions: 1 2 3 4 5 6 7 8 9 10 11 12 13 14 15 16 17 18 19 20 21 22 23 24 25 26 27 28 29 30 31 32 33 34 35 36 37 38 39 40 41 42 43 44 45 46 47 48 49 50
000
ASUS43 KMPX 240010
RWRMN
WEATHER ROUNDUP FOR MINNESOTA
NATIONAL WEATHER SERVICE TWIN CITIES/CHANHASSEN MN
600 PM CST MON JAN 23 2017


NOTE: "FAIR" INDICATES FEW OR NO CLOUDS BELOW 12,000 FEET WITH NO
SIGNIFICANT WEATHER AND/OR OBSTRUCTIONS TO VISIBILITY. N/A MEANS
CURRENT SKY AND/OR WEATHER CONDITIONS ARE NOT AVAILABLE.

MNZ060>063-068>070-240100-
   Twin Cities Metro

CITY           SKY/WX    TMP DP  RH WIND       PRES   REMARKS
TWIN CITIES    CLOUDY    34  29  82 NW5       29.84R WCI  30
6HR MIN TEMP:  34; 6HR MAX TEMP:  35;

ST PAUL        CLOUDY    34  30  85 CALM      29.85R
CRYSTAL        CLOUDY    33  28  81 W5        29.83R WCI  29
BLAINE         CLOUDY    34  34 100 W3        29.83R FOG
LAKEVILLE      CLOUDY    30  30 100 CALM      29.83S
EDEN PRAIRIE   CLOUDY    33  29  85 W3        29.83R
6HR MIN TEMP:  33; 6HR MAX TEMP:  34;

SOUTH ST PAUL  CLOUDY    34  30  86 CALM      29.84R
LAKE ELMO      CLOUDY    34  32  93 CALM      29.84R
$$
MNZ001>005-007-008-013>017-022>024-027-028-240100-
   Northwest Minnesota

CITY           SKY/WX    TMP DP  RH WIND       PRES   REMARKS
BEMIDJI        CLOUDY    31  24  77 SW7       29.79S WCI  24
HALLOCK        CLOUDY    28  25  86 W12       29.79R WCI  18
ROSEAU         CLOUDY    28  25  86 SW6       29.79S WCI  22
WARROAD        CLOUDY    28  25  86 SW9       29.79S WCI  20
THIEF RVR FALL CLOUDY    29  23  78 SW10      29.81S WCI  20
CROOKSTON      CLOUDY    28  27  93 W6        29.83S WCI  22
FOSSTON        CLOUDY    28  25  86 SW8       29.81S WCI  20
DETROIT LAKES  CLOUDY    32  28  86 NW5       29.82R WCI  27
MOORHEAD       CLOUDY    30  27  86 N5        29.84S WCI  25
PARK RAPIDS    CLOUDY    31  24  75 W9        29.80R WCI  23
MAHNOMEN       CLOUDY    29  24  81 W6        29.82R WCI  23
$$
MNZ006-009>011-018-025>026-240100-
   North Central Minnesota

CITY           SKY/WX    TMP DP  RH WIND       PRES   REMARKS
BAUDETTE       CLOUDY    31  25  78 SW10      29.78R WCI  22
FLAG ISLAND    CLOUDY    30  28  93 SW12      29.76R WCI  21
INTL FALLS     CLOUDY    32  27  81 CALM      29.78R
6HR MIN TEMP:  32; 6HR MAX TEMP:  34;

WASKISH        CLOUDY    30  27  86 W9        29.80S WCI  22
BIG FORK       CLOUDY    32  27  80 CALM      29.80R
LONGVILLE      CLOUDY    30  27  86 CALM      29.80S
GRAND RAPIDS   CLOUDY    31  26  82 NW6       29.82R WCI  25
CRANE LAKE     CLOUDY    30  30 100 CALM      29.80S
ORR            CLOUDY    30  28  93 CALM      29.77R
COOK           CLOUDY    32  30  93 W3        29.79S
WALKER         CLOUDY    31  24  74 SW7       29.80S WCI  24
$$
MNZ012-019>021-037-240100-
   Northeast Minnesota

CITY           SKY/WX    TMP DP  RH WIND       PRES   REMARKS
DULUTH         CLOUDY    34  32  92 NW3       29.78S
6HR MIN TEMP:  34; 6HR MAX TEMP:  38; 6HR PCP:  0.02;

ELY            CLOUDY    34  34 100 CALM      29.77S
HIBBING        CLOUDY    31  30  96 W5        29.79R WCI  26
EVELETH        CLOUDY    32  31  97 W3        29.79S
DULUTH HARBOR  CLOUDY    36  34  93 W5        29.82R
TWO HARBORS    MOCLDY    37  34  87 CALM      29.77R
SILVER BAY     CLOUDY    36  36 100 CALM      29.76S
GRAND MARAIS     N/A     36  34  92 CALM      29.79S
G MARAIS ARPRT LGT SNOW  32  28  86 CALM      29.75S
$$
MNZ029>031-032-039>041-046>048-054>057-064-240100-
   West Central Minnesota

CITY           SKY/WX    TMP DP  RH WIND       PRES   REMARKS
FERGUS FALLS   CLOUDY    30  27  86 CALM      29.87S
WHEATON        CLOUDY    32  25  74 CALM      29.86S
MORRIS         CLOUDY    30  27  86 CALM      29.83R
ALEXANDRIA     CLOUDY    30  25  81 W3        29.83R
ELBOW LAKE     CLOUDY    31  26  81 NW3       29.84R HAZE
WADENA         CLOUDY    30  25  80 W3        29.81R
GLENWOOD       CLOUDY    30  27  86 W3        29.83S
APPLETON       CLOUDY    34  27  75 CALM      29.84S
ORTONVILLE     CLOUDY    30  27  86 CALM      29.83S
MADISON        CLOUDY    34  28  80 CALM      29.84R
WILLMAR        CLOUDY    34  28  80 CALM      29.85S
$$
MNZ033>034-036-042>043-049>051-058-059-240100-
   Central Minnesota

CITY           SKY/WX    TMP DP  RH WIND       PRES   REMARKS
ST CLOUD       CLOUDY    32  27  81 NW5       29.83S WCI  27
6HR MIN TEMP:  32; 6HR MAX TEMP:  33;

SAUK CENTRE    CLOUDY    31  26  82 W3        29.82F
PAYNESVILLE    CLOUDY    32  31  96 NW3       29.84S
AITKIN         CLOUDY    34  27  75 CALM      29.81R
PINE RIVER     CLOUDY    30  25  80 CALM      29.85R
BRAINERD       CLOUDY    31  25  78 CALM      29.82R
STAPLES        CLOUDY    30  25  80 W5        29.82R WCI  25
LONG PRAIRIE   CLOUDY    30  27  86 CALM      29.82S
LITTLE FALLS   CLOUDY    32  27  80 CALM      29.84S
LITCHFIELD     CLOUDY    34  28  80 CALM      29.84R
BUFFALO        CLOUDY    32  27  82 W5        29.84S WCI  28
MAPLE LAKE     CLOUDY    33  29  87 NW3       29.84S
HUTCHINSON     CLOUDY    33  29  85 W5        29.85R WCI  28
$$
MNZ037-044-045-052-053-240100-
   East Central Minnesota

CITY           SKY/WX    TMP DP  RH WIND       PRES   REMARKS
PRINCETON      CLOUDY    34  30  86 W3        29.84R
MORA           CLOUDY    32  30  93 NW3       29.84S
CAMBRIDGE      CLOUDY    34  34 100 CALM      29.81S
RUSH CITY      CLOUDY    32  30  93 CALM      29.83S
MOOSE LAKE     CLOUDY    34  32  93 W3        29.79S
HINCKLEY       CLOUDY    32  32 100 W5        29.82R WCI  27
CLOQUET        CLOUDY    34  32  93 W3        29.79S
MCGREGOR       CLOUDY    32  32 100 CALM      29.81S
$$
MNZ071>073-080-081-089-090-097-098-240100-
   Southwest Minnesota

CITY           SKY/WX    TMP DP  RH WIND       PRES   REMARKS
MONTEVIDEO     CLOUDY    30  30 100 CALM      29.85S
GRANITE FALLS  CLOUDY    33  30  90 CALM      29.85F
CANBY          CLOUDY    32  29  89 CALM      29.85R
MARSHALL       CLOUDY    31  28  89 CALM      29.84S
REDWOOD FALLS  CLOUDY    33  27  78 CALM      29.84S
OLIVIA         CLOUDY    32  28  86 CALM      29.83F
PIPESTONE      CLOUDY    30  28  93 CALM      29.79S
WINDOM         CLOUDY    30  28  93 CALM      29.82S
WORTHINGTON    CLOUDY    30  29  96 E3        29.81F
JACKSON        CLOUDY    30  28  93 CALM      29.82F
TRACY          CLOUDY    32  29  90 E3        29.82F
SLAYTON        CLOUDY    30  28  92 CALM      29.82S
$$
MNZ065>067-074>077-082>085-091>093-240100-
   South Central Minnesota

CITY           SKY/WX    TMP DP  RH WIND       PRES   REMARKS
MANKATO        CLOUDY    32  28  85 NW7       29.84S WCI  26
NEW ULM        CLOUDY    32  30  93 CALM      29.84S
ST JAMES       CLOUDY    30  30 100 CALM      29.85S
FAIRMONT       CLOUDY    31  30  96 N3        29.83F
GLENCOE        CLOUDY    33  31  92 CALM      29.83S
OWATONNA       CLOUDY    32  28  86 W6        29.83S WCI  26
WASECA         CLOUDY    32  28  86 NW5       29.84F WCI  27
ALBERT LEA     CLOUDY    32  28  86 NW3       29.82S
$$
MNZ078>079-086>088-094>096-240100-
   Southeast Minnesota

CITY           SKY/WX    TMP DP  RH WIND       PRES   REMARKS
ROCHESTER      CLOUDY    31  28  89 W8        29.82S WCI  23
6HR MIN TEMP:  31; 6HR MAX TEMP:  33; 6HR PCP: TRACE;

RED WING       CLOUDY    34  28  80 CALM      29.83S
STANTON        CLOUDY    33  28  82 NW6       29.82S WCI  28
DODGE CENTER   MOCLDY    30  28  93 MISG      29.82S
WINONA         CLOUDY    34  32  93 CALM      29.84S
AUSTIN         CLOUDY    32  27  80 NW8       29.82S WCI  25
PRESTON        CLOUDY    32  28  87 NW7       29.82S WCI  25
$$
ABBREVIATIONS USED IN REMARKS
   TC - TEMPERATURES IN CELSIUS
  WCI - WIND CHILL INDEX
   HX - HEAT INDEX
  VSB - VISIBILITY
$$




USA.gov is the U.S. government's official web portal to all federal, state and local government web resources and services.